Time,TemperatureF,DewpointF,PressureIn,WindDirection,WindDirectionDegrees,WindSpeedMPH,WindSpeedGustMPH,Humidity,HourlyPrecipIn,Conditions,Clouds,dailyrainin,SolarRadiationWatts/m^2,SoftwareType,DateUTC
2013-02-18 00:08:00,38.5,37.0,30.00,NNE,17,0.0,0.0,93,0.00,,,0.00,0,weatherlink.com 1.10,2013-02-18 08:08:00,
2013-02-18 00:23:00,38.0,36.0,30.00,NNE,17,0.0,0.0,92,0.00,,,0.00,0,weatherlink.com 1.10,2013-02-18 08:23:00,
2013-02-18 00:39:00,37.4,35.0,30.00,NNE,17,0.0,0.0,92,0.00,,,0.00,0,weatherlink.com 1.10,2013-02-18 08:39:00,
2013-02-18 00:54:00,37.0,35.0,30.00,NNE,17,0.0,0.0,92,0.00,,,0.00,0,weatherlink.com 1.10,2013-02-18 08:54:00,
2013-02-18 01:23:00,36.5,35.0,30.00,NNE,17,0.0,0.0,93,0.00,,,0.00,0,weatherlink.com 1.10,2013-02-18 09:23:00,
2013-02-18 01:38:00,36.4,35.0,30.00,NNE,17,0.0,0.0,93,0.00,,,0.00,0,weatherlink.com 1.10,2013-02-18 09:38:00,
2013-02-18 01:53:00,36.2,34.0,30.00,NNE,17,0.0,0.0,93,0.00,,,0.00,0,weatherlink.com 1.10,2013-02-18 09:53:00,
2013-02-18 02:08:00,35.7,34.0,29.99,NNE,17,0.0,0.0,93,0.00,,,0.00,0,weatherlink.com 1.10,2013-02-18 10:08:00,
2013-02-18 02:24:00,35.0,33.0,29.99,NNE,17,0.0,0.0,93,0.00,,,0.00,0,weatherlink.com 1.10,2013-02-18 10:24:00,
2013-02-18 02:38:00,34.5,33.0,29.99,NNE,17,0.0,0.0,93,0.00,,,0.00,0,weatherlink.com 1.10,2013-02-18 10:38:00,
2013-02-18 02:54:00,34.4,33.0,29.98,NNE,17,0.0,0.0,94,0.00,,,0.00,0,weatherlink.com 1.10,2013-02-18 10:54:00,
2013-02-18 03:08:00,34.3,33.0,29.98,NNE,17,0.0,1.0,94,0.00,,,0.00,0,weatherlink.com 1.10,2013-02-18 11:08:00,
2013-02-18 03:24:00,34.4,33.0,29.97,NNE,17,0.0,1.0,94,0.00,,,0.00,0,weatherlink.com 1.10,2013-02-18 11:24:00,
2013-02-18 03:39:00,34.2,33.0,29.97,NNE,17,0.0,1.0,94,0.00,,,0.00,0,weatherlink.com 1.10,2013-02-18 11:39:00,
2013-02-18 03:54:00,33.5,32.0,29.97,NNE,17,0.0,0.0,93,0.00,,,0.00,0,weatherlink.com 1.10,2013-02-18 11:54:00,
2013-02-18 04:09:00,33.0,32.0,29.97,NNE,17,0.0,0.0,94,0.00,,,0.00,0,weatherlink.com 1.10,2013-02-18 12:09:00,
2013-02-18 04:24:00,32.9,31.0,29.98,NNE,17,0.0,0.0,94,0.00,,,0.00,0,weatherlink.com 1.10,2013-02-18 12:24:00,
2013-02-18 04:39:00,32.6,31.0,29.98,NNE,17,0.0,0.0,94,0.00,,,0.00,0,weatherlink.com 1.10,2013-02-18 12:39:00,
2013-02-18 04:54:00,32.3,31.0,29.98,NNE,17,0.0,0.0,94,0.00,,,0.00,0,weatherlink.com 1.10,2013-02-18 12:54:00,
2013-02-18 05:09:00,32.4,31.0,29.98,NE,43,0.0,2.0,94,0.00,,,0.00,0,weatherlink.com 1.10,2013-02-18 13:09:00,
2013-02-18 05:24:00,32.4,31.0,29.98,NE,43,0.0,0.0,94,0.00,,,0.00,0,weatherlink.com 1.10,2013-02-18 13:24:00,
2013-02-18 05:39:00,33.1,32.0,29.98,NE,43,0.0,1.0,95,0.00,,,0.00,0,weatherlink.com 1.10,2013-02-18 13:39:00,
2013-02-18 05:54:00,33.0,32.0,29.98,NE,43,0.0,1.0,95,0.00,,,0.00,0,weatherlink.com 1.10,2013-02-18 13:54:00,
2013-02-18 06:09:00,32.6,31.0,29.98,NE,43,0.0,0.0,95,0.00,,,0.00,0,weatherlink.com 1.10,2013-02-18 14:09:00,
2013-02-18 06:24:00,33.3,32.0,29.99,NE,43,0.0,2.0,95,0.00,,,0.00,0,weatherlink.com 1.10,2013-02-18 14:24:00,
2013-02-18 06:39:00,33.0,32.0,29.99,NE,43,0.0,0.0,95,0.00,,,0.00,0,weatherlink.com 1.10,2013-02-18 14:39:00,
2013-02-18 06:54:00,32.6,31.0,29.99,NE,43,0.0,0.0,95,0.00,,,0.00,5,weatherlink.com 1.10,2013-02-18 14:54:00,
2013-02-18 07:09:00,33.2,32.0,29.98,NE,43,0.0,1.0,95,0.00,,,0.00,14,weatherlink.com 1.10,2013-02-18 15:09:00,
2013-02-18 07:24:00,34.1,33.0,29.99,NW,313,1.0,3.0,96,0.00,,,0.00,51,weatherlink.com 1.10,2013-02-18 15:24:00,
2013-02-18 07:39:00,34.8,34.0,29.99,NW,312,0.0,2.0,96,0.00,,,0.00,62,weatherlink.com 1.10,2013-02-18 15:39:00,
2013-02-18 07:54:00,35.3,34.0,30.00,NW,312,0.0,1.0,96,0.00,,,0.00,69,weatherlink.com 1.10,2013-02-18 15:54:00,
2013-02-18 08:09:00,35.7,35.0,30.00,NW,312,0.0,0.0,96,0.00,,,0.00,125,weatherlink.com 1.10,2013-02-18 16:09:00,
2013-02-18 08:24:00,37.2,36.0,30.00,NW,308,0.0,1.0,96,0.00,,,0.00,137,weatherlink.com 1.10,2013-02-18 16:24:00,
2013-02-18 08:39:00,38.4,37.0,30.00,NW,308,0.0,2.0,96,0.00,,,0.00,171,weatherlink.com 1.10,2013-02-18 16:39:00,
2013-02-18 08:54:00,39.6,39.0,30.01,NW,308,1.0,2.0,97,0.00,,,0.00,183,weatherlink.com 1.10,2013-02-18 16:54:00,
2013-02-18 09:09:00,41.4,41.0,30.01,NW,313,1.0,2.0,97,0.00,,,0.00,209,weatherlink.com 1.10,2013-02-18 17:09:00,
2013-02-18 09:24:00,42.4,41.0,30.01,NW,309,0.0,3.0,96,0.00,,,0.00,121,weatherlink.com 1.10,2013-02-18 17:24:00,
2013-02-18 09:39:00,43.2,42.0,30.02,NNW,331,3.0,3.0,94,0.00,,,0.00,113,weatherlink.com 1.10,2013-02-18 17:39:00,
2013-02-18 09:54:00,43.8,42.0,30.01,NW,304,1.0,6.0,92,0.00,,,0.00,116,weatherlink.com 1.10,2013-02-18 17:54:00,
2013-02-18 10:09:00,44.4,42.0,30.02,North,351,4.0,5.0,91,0.00,,,0.00,113,weatherlink.com 1.10,2013-02-18 18:09:00,
2013-02-18 10:24:00,44.6,42.0,30.02,North,11,1.0,4.0,89,0.00,,,0.00,181,weatherlink.com 1.10,2013-02-18 18:24:00,
2013-02-18 10:39:00,45.3,42.0,30.02,West,275,3.0,6.0,88,0.00,,,0.00,325,weatherlink.com 1.10,2013-02-18 18:39:00,
2013-02-18 10:54:00,46.2,43.0,30.02,NNE,32,1.0,3.0,87,0.00,,,0.00,271,weatherlink.com 1.10,2013-02-18 18:54:00,
2013-02-18 11:10:00,47.4,43.0,30.01,WNW,303,0.0,4.0,84,0.00,,,0.00,294,weatherlink.com 1.10,2013-02-18 19:10:00,
2013-02-18 11:25:00,48.3,43.0,30.01,NE,50,2.0,4.0,83,0.00,,,0.00,849,weatherlink.com 1.10,2013-02-18 19:25:00,
2013-02-18 11:40:00,50.1,44.0,30.00,South,171,2.0,5.0,80,0.01,,,0.01,900,weatherlink.com 1.10,2013-02-18 19:40:00,
2013-02-18 11:55:00,51.0,44.0,29.99,ESE,123,1.0,5.0,76,0.01,,,0.01,854,weatherlink.com 1.10,2013-02-18 19:55:00,
2013-02-18 12:10:00,51.9,43.0,29.98,East,89,5.0,7.0,73,0.01,,,0.01,661,weatherlink.com 1.10,2013-02-18 20:10:00,
2013-02-18 12:25:00,52.6,44.0,29.97,NE,50,0.0,4.0,73,0.01,,,0.01,334,weatherlink.com 1.10,2013-02-18 20:25:00,
2013-02-18 12:40:00,53.0,43.0,29.96,NNE,32,9.0,15.0,70,0.00,,,0.01,318,weatherlink.com 1.10,2013-02-18 20:40:00,
2013-02-18 12:55:00,52.6,43.0,29.95,North,5,3.0,8.0,71,0.00,,,0.01,390,weatherlink.com 1.10,2013-02-18 20:55:00,
2013-02-18 13:10:00,52.6,43.0,29.95,WNW,300,3.0,13.0,70,0.00,,,0.01,334,weatherlink.com 1.10,2013-02-18 21:10:00,
2013-02-18 13:25:00,52.1,43.0,29.95,WNW,290,1.0,9.0,71,0.00,,,0.01,211,weatherlink.com 1.10,2013-02-18 21:25:00,
2013-02-18 13:40:00,52.2,43.0,29.95,NW,310,4.0,7.0,71,0.00,,,0.01,234,weatherlink.com 1.10,2013-02-18 21:40:00,
2013-02-18 13:55:00,51.6,42.0,29.95,NW,311,7.0,11.0,70,0.00,,,0.01,225,weatherlink.com 1.10,2013-02-18 21:55:00,
2013-02-18 14:10:00,51.5,42.0,29.94,North,355,4.0,13.0,70,0.00,,,0.01,239,weatherlink.com 1.10,2013-02-18 22:10:00,
2013-02-18 14:25:00,51.5,42.0,29.94,North,355,5.0,13.0,69,0.00,,,0.01,260,weatherlink.com 1.10,2013-02-18 22:25:00,
2013-02-18 14:40:00,51.8,41.0,29.94,NW,323,5.0,13.0,67,0.00,,,0.01,241,weatherlink.com 1.10,2013-02-18 22:40:00,
2013-02-18 14:55:00,51.9,42.0,29.94,NNW,337,8.0,11.0,68,0.00,,,0.01,211,weatherlink.com 1.10,2013-02-18 22:55:00,
2013-02-18 15:10:00,51.2,42.0,29.94,NW,325,8.0,14.0,71,0.00,,,0.01,176,weatherlink.com 1.10,2013-02-18 23:10:00,
2013-02-18 15:25:00,50.3,42.0,29.93,WNW,290,2.0,14.0,74,0.00,,,0.01,190,weatherlink.com 1.10,2013-02-18 23:25:00,
2013-02-18 15:40:00,50.4,42.0,29.94,WNW,296,10.0,15.0,74,0.00,,,0.01,190,weatherlink.com 1.10,2013-02-18 23:40:00,
2013-02-18 15:55:00,49.8,42.0,29.94,NW,309,7.0,14.0,75,0.00,,,0.01,139,weatherlink.com 1.10,2013-02-18 23:55:00,
2013-02-18 16:10:00,50.1,42.0,29.94,North,355,14.0,17.0,74,0.00,,,0.01,130,weatherlink.com 1.10,2013-02-19 00:10:00,
2013-02-18 16:25:00,49.3,41.0,29.94,ENE,69,7.0,13.0,74,0.00,,,0.01,139,weatherlink.com 1.10,2013-02-19 00:25:00,
2013-02-18 16:40:00,49.2,41.0,29.93,North,10,6.0,12.0,74,0.00,,,0.01,98,weatherlink.com 1.10,2013-02-19 00:40:00,
2013-02-18 16:55:00,48.9,41.0,29.93,NW,310,11.0,11.0,74,0.00,,,0.01,65,weatherlink.com 1.10,2013-02-19 00:55:00,
2013-02-18 17:10:00,48.5,41.0,29.93,NW,311,8.0,15.0,75,0.00,,,0.01,26,weatherlink.com 1.10,2013-02-19 01:10:00,
2013-02-18 17:25:00,48.2,41.0,29.92,NW,317,6.0,14.0,77,0.00,,,0.01,11,weatherlink.com 1.10,2013-02-19 01:25:00,
2013-02-18 17:40:00,47.8,41.0,29.92,NW,319,4.0,16.0,77,0.00,,,0.01,5,weatherlink.com 1.10,2013-02-19 01:40:00,
2013-02-18 17:55:00,47.6,41.0,29.92,North,5,7.0,12.0,77,0.00,,,0.01,0,weatherlink.com 1.10,2013-02-19 01:55:00,
2013-02-18 18:10:00,47.5,41.0,29.92,NNW,331,6.0,12.0,78,0.00,,,0.01,0,weatherlink.com 1.10,2013-02-19 02:10:00,
2013-02-18 18:25:00,47.6,41.0,29.92,North,350,11.0,15.0,78,0.00,,,0.01,0,weatherlink.com 1.10,2013-02-19 02:25:00,
2013-02-18 18:40:00,47.6,41.0,29.93,North,355,3.0,14.0,79,0.00,,,0.01,0,weatherlink.com 1.10,2013-02-19 02:40:00,
2013-02-18 18:55:00,47.5,41.0,29.93,NW,309,5.0,14.0,78,0.00,,,0.01,0,weatherlink.com 1.10,2013-02-19 02:55:00,
2013-02-18 19:26:00,47.4,41.0,29.93,NW,325,4.0,10.0,78,0.00,,,0.01,0,weatherlink.com 1.10,2013-02-19 03:26:00,
2013-02-18 19:41:00,47.2,41.0,29.93,WNW,297,3.0,10.0,79,0.00,,,0.01,0,weatherlink.com 1.10,2013-02-19 03:41:00,
2013-02-18 20:10:00,46.8,41.0,29.94,NW,316,6.0,11.0,80,0.00,,,0.01,0,weatherlink.com 1.10,2013-02-19 04:10:00,
2013-02-18 20:25:00,46.4,41.0,29.94,NNW,348,7.0,10.0,80,0.00,,,0.01,0,weatherlink.com 1.10,2013-02-19 04:25:00,
2013-02-18 20:40:00,46.0,41.0,29.94,North,360,5.0,9.0,81,0.00,,,0.01,0,weatherlink.com 1.10,2013-02-19 04:40:00,
2013-02-18 20:55:00,46.1,40.0,29.94,NNW,336,2.0,7.0,80,0.00,,,0.01,0,weatherlink.com 1.10,2013-02-19 04:55:00,
2013-02-18 21:10:00,46.1,40.0,29.95,NNW,331,3.0,9.0,80,0.00,,,0.01,0,weatherlink.com 1.10,2013-02-19 05:10:00,
2013-02-18 21:25:00,46.1,40.0,29.95,North,355,2.0,8.0,79,0.00,,,0.01,0,weatherlink.com 1.10,2013-02-19 05:25:00,
2013-02-18 21:40:00,45.8,39.0,29.95,North,360,4.0,6.0,78,0.00,,,0.01,0,weatherlink.com 1.10,2013-02-19 05:40:00,
2013-02-18 21:56:00,45.3,39.0,29.95,North,355,3.0,6.0,78,0.00,,,0.01,0,weatherlink.com 1.10,2013-02-19 05:56:00,
2013-02-18 22:10:00,44.9,39.0,29.95,NNE,19,2.0,6.0,80,0.00,,,0.01,0,weatherlink.com 1.10,2013-02-19 06:10:00,
2013-02-18 22:25:00,44.3,39.0,29.95,NNE,19,4.0,7.0,82,0.00,,,0.01,0,weatherlink.com 1.10,2013-02-19 06:25:00,
2013-02-18 22:40:00,44.0,39.0,29.95,North,5,0.0,6.0,83,0.00,,,0.01,0,weatherlink.com 1.10,2013-02-19 06:40:00,
2013-02-18 22:55:00,43.8,38.0,29.95,NW,315,4.0,7.0,81,0.00,,,0.01,0,weatherlink.com 1.10,2013-02-19 06:55:00,
2013-02-18 23:10:00,44.2,38.0,29.95,NNE,12,5.0,8.0,78,0.00,,,0.01,0,weatherlink.com 1.10,2013-02-19 07:10:00,
2013-02-18 23:26:00,44.2,38.0,29.95,NNE,27,4.0,9.0,78,0.00,,,0.01,0,weatherlink.com 1.10,2013-02-19 07:26:00,
2013-02-18 23:41:00,44.3,38.0,29.95,North,5,1.0,7.0,78,0.00,,,0.01,0,weatherlink.com 1.10,2013-02-19 07:41:00,
2013-02-18 23:55:00,44.3,39.0,29.95,North,355,3.0,8.0,80,0.00,,,0.01,0,weatherlink.com 1.10,2013-02-19 07:55:00,